Location: Erpfental
(48.9543°N, 10.2337°E)
Time: 06:22:52
(UTC+00:00)

Daily predictions for brighter satellites

Satellite Brightness Start Highest point End
(mag) Time Altitude Azimuth Time Altitude Azimuth Time Altitude Azimuth
BREEZE-M DEB (TANK) 2.6 15:51:18 10° WSW 15:53:38 77° NNW 15:59:28 10° ENE
CENTAUR R/B 2.7 15:48:39 10° SSW 15:54:01 57° ESE 16:00:47 10° NE
IGS 5A 3.5 15:53:30 10° SSE 15:57:20 51° ENE 16:01:12 10° N
Cosmos 2297 Rocket 3.2 15:52:57 10° NNW 15:57:39 26° NE 16:02:20 10° E
MOS 1 Rocket 4.4 15:55:38 10° ESE 15:59:28 24° ENE 16:03:28 10° N
ATLAS 2AS CENTAUR R/B 4.2 15:53:30 10° NW 15:59:48 42° WSW 16:06:03 10° S
ARIANE 5 R/B 3.1 15:56:11 10° SE 16:00:43 35° ENE 16:05:19 10° N
Okean 2 Rocket 3.8 15:56:43 10° SSW 16:00:59 54° WNW 16:05:18 10° N
Cosmos 2084 3.7 15:57:54 10° SSW 16:02:00 55° SE 16:06:05 10° NE
Okean 1 Rocket 3.5 15:57:59 10° SSW 16:02:16 63° WNW 16:06:34 10° N
Cosmos 2098 Rocket 4.5 16:00:19 10° ESE 16:02:44 16° E 16:05:22 10° NE
USA 215 3.8 15:59:32 10° ENE 16:05:40 44° N 16:11:49 10° WNW
UNK 4.4 16:02:33 10° NNE 16:06:49 36° E 16:11:02 10° SSE
Cosmos 2026 Rocket 4.0 16:06:48 10° N 16:13:02 87° E 16:19:20 10° S
Meteor 2-3 Rocket 4.3 16:07:32 10° NNW 16:13:06 65° W 16:18:36 10° S
Cosmos 1634 Rocket 4.1 16:07:32 10° S 16:13:35 57° E 16:19:37 10° NNE
Cosmos 2228 3.2 16:14:31 10° SSE 16:18:35 49° E 16:22:42 10° NNE
Cosmos 405 Rocket 2.8 16:17:22 10° N 16:20:27 36° ENE 16:23:29 10° SE
CBERS-1 4.2 16:15:45 10° SSE 16:20:52 81° WSW 16:26:02 10° NNW
NOSS 2-2 (D) 4.5 16:18:51 10° S 16:21:25 19° ESE 16:23:09 13° E
Cosmos 1626 Rocket 3.8 16:19:57 10° N 16:24:09 45° ENE 16:28:17 10° SSE
Cosmos 1892 Rocket 4.2 16:20:57 10° NNW 16:25:20 61° W 16:29:43 10° S
Thor Agena Rocket 3.5 16:20:37 10° SSE 16:25:52 85° ENE 16:31:05 10° NNW
Cosmos 1356 Rocket 3.3 16:26:57 10° S 16:30:57 77° E 16:35:03 10° NNE
ARIANE 6 FM1 Upper Stage 3.4 16:28:50 10° NW 16:32:42 53° SW 16:36:37 10° SSE
Cosmos 1092 Rocket 4.2 16:26:59 10° NNW 16:33:10 78° W 16:39:17 10° S
Cosmos 292 Rocket 4.2 16:29:14 10° SW 16:33:59 63° WNW 16:38:46 10° NNE
Cosmos 2279 Rocket 4.1 16:28:02 10° S 16:34:03 57° E 16:40:09 10° NNE
CZ-4C R/B 3.2 16:29:56 10° NW 16:36:05 43° NE 16:43:47 10° ESE
Cosmos 1315 Rocket 2.7 16:32:29 10° S 16:36:20 88° WNW 16:40:11 10° NNE
BlueWalker 3 1.8 16:34:06 10° WNW 16:37:43 64° NNE 16:40:31 16° E
NOSS 3-2 (C) 4.4 16:36:12 10° SSE 16:39:50 20° ESE 16:41:55 16° E
Cosmos 1484 Rocket 4.3 16:37:52 10° SSW 16:41:08 36° W 16:44:26 10° NNW
Cosmos 1544 Rocket 3.7 16:37:37 10° S 16:41:51 50° E 16:46:09 10° NNE
NOSS 3-2 (A) 3.3 16:37:49 10° SSW 16:42:37 51° ESE 16:47:01 16° NE
Cosmos 2263 Rocket 3.6 16:38:46 10° N 16:42:37 18° NE 16:44:07 17° ENE
IRS-P3 4.1 16:40:48 10° SSE 16:46:00 59° ENE 16:51:15 10° N
SJ-12 3.6 16:42:17 10° SSE 16:46:02 69° ENE 16:49:49 10° N
SAR-Lupe-4 3.4 16:42:45 10° SSE 16:46:18 78° ENE 16:49:53 10° NNW
Cosmos 2227 Rocket 3.1 16:43:36 10° NNW 16:48:24 27° NE 16:51:16 18° E
SKYMED 2 4.5 16:46:36 18° NE 16:48:57 28° E 16:52:42 10° SSE
Intercosmos 24 3.8 16:45:44 10° N 16:50:04 86° W 16:53:38 10° S
Cosmos 1733 2.5 16:52:20 33° SE 16:52:20 33° SE 16:53:39 10° SSE
SAR-Lupe-1 3.9 16:48:11 10° SSE 16:51:47 78° ENE 16:55:24 10° NNW
IRIDIUM 114 4.4 16:47:44 10° N 16:52:52 53° E 16:57:58 10° SSE
Cosmos 2369 Rocket 3.8 16:49:07 10° WSW 16:54:01 29° NW 16:58:58 10° NNE
USA 290 3.0 16:51:28 10° N 16:54:25 30° ENE 16:54:37 30° ENE
BREEZE M DEB (TANK) 3.8 16:42:06 10° WNW 16:55:52 72° SSW 16:59:19 13° ESE
SL-16 R/B 3.2 16:50:21 10° N 16:56:25 54° WNW 17:02:25 10° SW
Spot 4 Rocket 4.4 16:52:10 10° SE 16:56:52 39° ENE 17:01:35 10° N
CZ-2D R/B 2.8 16:55:00 10° S 16:58:07 79° WSW 17:01:17 10° NNW
SAR-Lupe-3 4.2 16:59:48 38° ESE 16:59:48 38° ESE 17:01:57 10° S
Cosmos 2151 3.0 16:55:28 10° N 16:59:32 52° ENE 17:03:35 10° SSE
Cosmos 1867 4.2 16:55:49 10° NNW 17:00:53 37° NE 17:03:27 24° E
Cosmos 1602 Rocket 3.5 16:57:04 10° N 17:01:27 58° ENE 17:05:45 10° SSE
IRIDIUM 103 4.3 16:56:52 10° N 17:02:05 64° E 17:07:15 10° SSE
Cosmos 1782 2.4 17:00:46 10° S 17:04:22 83° E 17:07:26 14° NNE
Cosmos 2142 Rocket 4.5 16:58:22 10° S 17:04:43 73° E 17:11:06 10° NNE
Meteor 1-20 Rocket 4.1 16:59:20 10° N 17:04:45 59° ENE 17:10:08 10° SSE
Lacrosse 5 rocket 1.1 17:01:25 10° WSW 17:05:09 71° NNW 17:06:42 32° NE
Cosmos 1743 2.1 17:04:41 10° N 17:07:58 77° E 17:11:12 10° SSE
Cosmos 1570 Rocket 4.3 17:03:27 10° NNW 17:08:47 72° WSW 17:14:04 10° SSE
Cosmos 2266 Rocket 3.9 17:03:35 10° N 17:09:47 67° ENE 17:15:50 10° SSE
Cosmos 1697 Rocket 3.6 17:06:02 10° SSE 17:10:33 26° ESE 17:11:02 26° E
Cosmos 1777 Rocket 4.3 17:07:40 10° S 17:12:39 46° ESE 17:15:05 27° NE
NOSS 2-2 (C) 3.1 17:10:09 10° SW 17:13:20 57° NW 17:14:13 38° NNE
YAOGAN 1 2.6 17:13:45 10° SE 17:17:51 49° ENE 17:21:58 10° N
COSMO-SKYMED 1 3.0 17:19:05 36° ESE 17:19:05 36° ESE 17:22:35 10° SSE
SMAP 4.5 17:14:28 10° SSW 17:18:51 40° W 17:23:16 10° NNW
IRIDIUM 106 4.3 17:15:09 10° N 17:20:25 89° E 17:25:38 10° S
PSLV R/B 3.5 17:21:32 41° ESE 17:22:18 47° ENE 17:26:12 10° N
Cosmos 1486 Rocket 3.9 17:19:16 10° SSW 17:24:26 73° ESE 17:27:28 25° NNE
Cosmos 1607 3.8 17:18:40 10° NW 17:24:55 76° NE 17:30:36 13° SE
BREEZE-M DEB (TANK) 3.6 17:22:48 10° W 17:26:05 85° N 17:30:09 29° E
Lacrosse 4 Rocket 3.0 17:23:13 10° WSW 17:26:49 29° NW 17:29:11 17° N
ATLAS CENTAUR R/B 0.5 17:25:09 10° NW 17:28:21 84° NNW 17:28:21 84° NNW
SL-19 R/B 4.1 17:23:15 10° SSE 17:28:28 61° ENE 17:33:57 10° N
Meteor 1-25 Rocket 4.2 17:23:43 10° N 17:29:35 73° ENE 17:35:21 10° SSE
Cosmos 724 4.2 17:28:15 10° NW 17:34:23 86° NE 17:39:24 15° SE
SPOT 1/Viking Rocket 3.6 17:30:22 10° SSE 17:35:34 82° WSW 17:40:50 10° NNW
Cosmos 1825 Rocket 3.4 17:32:02 10° N 17:36:24 67° ENE 17:40:42 10° SSE
MOS 1 Rocket 4.2 17:32:30 10° S 17:37:07 52° W 17:42:04 10° NNW
NOAA 6 4.0 17:33:44 10° SSE 17:38:44 59° ENE 17:43:46 10° N
ARIANE 5 R/B 4.1 17:35:06 10° SSW 17:39:43 36° W 17:44:26 10° NNW
Cosmos 2098 Rocket 3.7 17:36:10 10° SSW 17:39:48 49° WNW 17:44:09 10° N
CZ-2D R/B 3.5 17:35:44 10° SSE 17:39:57 82° WSW 17:44:10 10° NNW
Cosmos 2084 Rocket 3.6 17:37:25 10° NW 17:41:09 53° NNE 17:41:09 53° NNE
Cosmos 2297 Rocket 2.4 17:36:35 10° NNW 17:42:15 73° WSW 17:47:53 10° SSE
CENTAUR R/B 3.4 17:39:12 10° WSW 17:44:54 43° NNW 17:49:09 22° NNE
USA 215 3.4 17:45:59 41° ENE 17:48:06 59° NNE 17:54:32 10° NW
Cosmos 1655 Rocket 3.8 17:44:05 10° N 17:50:22 73° E 17:56:34 10° SSE
Meteor 1-5 Rocket 3.9 17:46:35 10° N 17:51:55 72° ENE 17:57:17 10° SSE
Cosmos 2219 4.3 17:47:44 10° NNW 17:51:24 29° NNE 17:51:24 29° NNE
Cosmos 1900 4.2 17:49:24 10° NW 17:54:29 76° NE 17:54:49 72° E
Cosmos 1656 4.1 17:50:14 10° SW 17:55:47 60° WNW 17:58:48 27° NNE
Cosmos 990 Rocket 4.3 17:56:08 10° S 18:00:04 48° SSE 18:00:04 48° SSE
USA 281 4.3 18:06:13 28° NNE 18:06:13 28° NNE 18:10:18 10° NNW
Cosmos 1606 Rocket 3.9 18:06:17 10° SSW 18:10:38 62° WNW 18:10:48 61° WNW
Cosmos 1980 Rocket 4.1 18:06:01 10° S 18:07:10 16° SSE 18:07:10 16° SSE
Resurs 1-3 4.5 18:10:51 10° S 18:14:59 46° W 18:19:09 10° NNW
BlueWalker 3 3.7 18:11:50 10° WNW 18:14:18 29° WSW 18:14:18 29° WSW
Meteor 2-20 4.3 18:17:14 10° S 18:23:24 88° W 18:25:00 53° N
CZ-4C R/B 3.1 18:17:58 10° NW 18:24:56 71° SW 18:29:51 28° SSE
Cosmos 2263 Rocket 2.8 18:21:54 10° NNW 18:25:49 44° N 18:25:49 44° N
NOSS 3-2 (C) 3.2 18:24:37 10° SW 18:29:21 72° W 18:29:21 72° W
Cosmos 2227 Rocket 2.4 18:27:19 10° NNW 18:32:55 66° WSW 18:33:08 66° SW
NOSS 3-2 (A) 4.2 18:28:34 10° WSW 18:33:33 40° NNW 18:34:23 38° NNW
Cosmos 1354 Rocket 4.5 18:29:45 10° SSW 18:34:18 58° WSW 18:34:18 58° WSW
Lacrosse 5 rocket 4.0 18:39:29 10° WNW 18:40:18 15° WNW 18:40:18 15° WNW
Cosmos 1867 4.3 18:39:22 10° NW 18:44:08 51° W 18:44:08 51° W
Cosmos 1697 Rocket 3.5 18:48:36 10° SW 18:52:47 46° WSW 18:52:47 46° WSW
USA 215 4.2 19:33:20 42° WNW 19:33:20 42° WNW 19:37:38 10° WNW
CENTAUR R/B 4.4 19:31:49 10° WNW 19:36:15 26° NNW 19:36:15 26° NNW
